Location: Haliburton Scout Reserve
(45.0900°N, 78.3200°W)
Time: 13:44:18
(UTC-04:00)

VELOX 1 - Visible Passes

Search period start: 16 May 2022 00:00
Search period end: 26 May 2022 00:00
Orbit: 624 x 641 km, 98.4° (Epoch: 16 May)

Date Brightness Start Highest point End Pass type
(mag) Time Alt. Az. Time Alt. Az. Time Alt. Az.
17 May ? 04:02:45 10° E 04:04:37 13° ENE 04:06:28 10° NNE visible
18 May ? 04:22:22 10° ESE 04:25:27 19° ENE 04:28:32 10° NNE visible
19 May ? 04:42:35 10° SE 04:46:21 29° ENE 04:50:08 10° N visible
22 May ? 04:11:09 10° E 04:13:35 15° ENE 04:16:01 10° NNE visible
23 May ? 04:31:03 10° ESE 04:34:26 23° ENE 04:37:49 10° NNE visible
24 May ? 04:51:23 10° SE 04:55:19 35° ENE 04:59:17 10° N visible
